Overview Statistics Trail Chart Weather Telemetry Raw packets
 

This is the latest recevied weather packets stored in our database for station/object SV9TNF-56. If no packets are shown the sender has not sent any weather packets the latest 10 day(s).

<< 62 63 64 65 66 67 68 >>
Time Temp. Humidity Pressure Rain* Wind** Luminosity Snow
1788235386 23.89° C 72% 1010.5 hPa 0 mm 8.49 m/s, 246° - -
1788235086 23.89° C 73% 1010.5 hPa 0 mm 8.49 m/s, 149° - -
1788234787 23.89° C 73% 1010.2 hPa 0 mm 7.15 m/s, 216° - -
1788234486 23.89° C 74% 1010.2 hPa 0 mm 7.6 m/s, 156° - -
1788234186 23.89° C 73% 1010.2 hPa 0 mm 4.47 m/s, 198° - -
1788233886 23.89° C 72% 1010.2 hPa 0 mm 4.92 m/s, 162° - -
1788233586 23.89° C 72% 1010.2 hPa 0 mm 19.67 m/s, 271° - -
1788233286 23.89° C 72% 1010.2 hPa 0 mm 8.05 m/s, 180° - -
1788232986 23.89° C 72% 1010.2 hPa 0 mm 26.38 m/s, 260° - -
1788232685 23.89° C 72% 1010.2 hPa 0 mm 28.61 m/s, 292° - -
1788232386 23.89° C 72% 1010.2 hPa 0 mm 7.6 m/s, 258° - -
1788232085 24.44° C 72% 1010.5 hPa 0 mm 25.93 m/s, 210° - -
1788231800 24.44° C 72% 1010.2 hPa 0 mm 13.86 m/s, 282° - -
1788231485 24.44° C 71% 1010.2 hPa 0 mm 23.69 m/s, 275° - -
1788231185 24.44° C 71% 1010.2 hPa 0 mm 8.94 m/s, 322° - -
1788230885 24.44° C 70% 1010.5 hPa 0 mm 17.88 m/s, 327° - -
1788230585 24.44° C 69% 1010.2 hPa 0 mm 16.54 m/s, 273° - -
1788230285 24.44° C 70% 1010.2 hPa 0 mm 14.31 m/s, 289° - -
1788229985 24.44° C 69% 1010.2 hPa 0 mm 16.99 m/s, 336° - -
1788229684 23.89° C 69% 1010.2 hPa 0 mm 14.75 m/s, 306° - -
1788229384 24.44° C 71% 1010.2 hPa 0 mm 13.41 m/s, 288° - -
1788229084 24.44° C 70% 1010.2 hPa 0 mm 14.31 m/s, 282° - -
1788228784 24.44° C 71% 1010.2 hPa 0 mm 16.09 m/s, 300° - -
1788228484 24.44° C 69% 1010.2 hPa 0 mm 21.01 m/s, 317° - -
1788228184 24.44° C 67% 1010.2 hPa 0 mm 12.96 m/s, 306° - -

* Rain latest hour (hover to see other rain measurements)
** Current wind speed in m/s (hover to see current wind gust speed)